"Pseudo-MPEC" for ST22K48

Created 2022 Nov 25 18:22:18 UT using Find_Orb

Click here for an explanation of pseudo-MPECs

 
 Astrometry: 
     ST22K48* C2022 11 20AiIkioE(SGs[nBLVd!cLqr3E\XVrqxra!=*pcfAstrometry#d_8U68
     ST22K48  C2022 11 20Y[d5y@R%7Kl6aoo=gfo:'JWfttRx_lredacted;6clickr'U-'u`U68
     ST22K48  C2022 11 20,fey#LnLChere5lm)N=;:l5FjNlZFti.Un;+Ynb_4(,u5T9*H_tIU68
     ST22K48  C2022 11 20OHocICSWRq%n^dw3R%?3!.An9DSfor3m\[explanationE*`x;8JU68

Station data:
(U68) JPL SynTrack Robotic Telescope, Auberry  (N37.070387 W119.412990)
   US/California.  Observers N. Saini, C. Zhai, R. Trahan, M. Zhan, M. Shao.
   0.28-m f/2.2 Schmidt + CCD.

Orbital elements:  ST22K48
   Perigee 2022 Nov 19.98827 TT = 23:43:06 (JD 2459903.48827)
Epoch 2022 Nov 20.0 TT = JDT 2459903.5                        AutoNEOCP
q 44167.2085km                      (J2000 equator)
H   30.7  G 0.15   Peri.   69.73270
                   Node   248.96534
e  85.9647610      Incl.   53.58078
From 4 observations 2022 Nov. 20 (35.0 min); mean residual 0".59
Residuals in arcseconds: 
221120 U68  .66+  .67+    221120 U68  .07-  .61+    
221120 U68  .75-  .88-    221120 U68  .17+  .40-    

Ephemerides (geocentric):
Date (UTC) HH   RA             Dec           delta  r     elong  mag
---- --------  ------------   ------------  ------ ------ -----  ---
2022 11 25 18  03 47 36.377   +15 49 30.48  .09249 1.0791 173.6 26.2
2022 11 25 19  03 47 36.622   +15 49 27.84  .09316 1.0798 173.6 26.2
2022 11 25 20  03 47 36.865   +15 49 25.27  .09383 1.0804 173.6 26.2
2022 11 25 21  03 47 37.106   +15 49 22.76  .09450 1.0811 173.5 26.2
2022 11 25 22  03 47 37.346   +15 49 20.32  .09518 1.0817 173.5 26.2
2022 11 25 23  03 47 37.583   +15 49 17.93  .09585 1.0824 173.5 26.2
2022 11 26 00  03 47 37.819   +15 49 15.60  .09652 1.0830 173.5 26.3
2022 11 26 01  03 47 38.053   +15 49 13.33  .09720 1.0837 173.4 26.3
2022 11 26 02  03 47 38.286   +15 49 11.11  .09787 1.0844 173.4 26.3
2022 11 26 03  03 47 38.517   +15 49 08.96  .09854 1.0850 173.4 26.3
2022 11 26 04  03 47 38.746   +15 49 06.85  .09922 1.0857 173.3 26.3
2022 11 26 05  03 47 38.974   +15 49 04.80  .09989 1.0863 173.3 26.3
2022 11 26 06  03 47 39.201   +15 49 02.81  .10057 1.0870 173.3 26.4
2022 11 26 07  03 47 39.427   +15 49 00.87  .10124 1.0876 173.2 26.4
2022 11 26 08  03 47 39.651   +15 48 58.97  .10191 1.0883 173.2 26.4
2022 11 26 09  03 47 39.874   +15 48 57.13  .10259 1.0889 173.1 26.4
2022 11 26 10  03 47 40.095   +15 48 55.34  .10326 1.0896 173.1 26.4
2022 11 26 11  03 47 40.316   +15 48 53.60  .10394 1.0903 173.1 26.4
2022 11 26 12  03 47 40.535   +15 48 51.90  .10461 1.0909 173.0 26.5
2022 11 26 13  03 47 40.754   +15 48 50.26  .10529 1.0916 173.0 26.5
2022 11 26 14  03 47 40.971   +15 48 48.66  .10596 1.0922 173.0 26.5
2022 11 26 15  03 47 41.187   +15 48 47.10  .10664 1.0929 172.9 26.5
2022 11 26 16  03 47 41.403   +15 48 45.59  .10731 1.0935 172.9 26.5
2022 11 26 17  03 47 41.618   +15 48 44.13  .10799 1.0942 172.9 26.5
2022 11 26 18  03 47 41.831   +15 48 42.71  .10866 1.0949 172.8 26.6
2022 11 26 19  03 47 42.044   +15 48 41.33  .10934 1.0955 172.8 26.6
2022 11 26 20  03 47 42.257   +15 48 40.00  .11001 1.0962 172.8 26.6
2022 11 26 21  03 47 42.468   +15 48 38.71  .11069 1.0968 172.7 26.6
2022 11 26 22  03 47 42.679   +15 48 37.46  .11136 1.0975 172.7 26.6
2022 11 26 23  03 47 42.889   +15 48 36.25  .11204 1.0981 172.7 26.6
2022 11 27 00  03 47 43.099   +15 48 35.08  .11271 1.0988 172.6 26.7
2022 11 27 01  03 47 43.308   +15 48 33.95  .11339 1.0994 172.6 26.7
2022 11 27 02  03 47 43.516   +15 48 32.86  .11406 1.1001 172.6 26.7
2022 11 27 03  03 47 43.724   +15 48 31.81  .11474 1.1008 172.5 26.7
2022 11 27 04  03 47 43.932   +15 48 30.80  .11542 1.1014 172.5 26.7
2022 11 27 05  03 47 44.139   +15 48 29.83  .11609 1.1021 172.5 26.7
2022 11 27 06  03 47 44.345   +15 48 28.89  .11677 1.1027 172.4 26.8
2022 11 27 07  03 47 44.551   +15 48 27.99  .11745 1.1034 172.4 26.8
2022 11 27 08  03 47 44.757   +15 48 27.13  .11812 1.1040 172.4 26.8
2022 11 27 09  03 47 44.963   +15 48 26.30  .11880 1.1047 172.3 26.8
2022 11 27 10  03 47 45.168   +15 48 25.51  .11948 1.1053 172.3 26.8
2022 11 27 11  03 47 45.373   +15 48 24.75  .12015 1.1060 172.2 26.8
2022 11 27 12  03 47 45.578   +15 48 24.03  .12083 1.1067 172.2 26.8
2022 11 27 13  03 47 45.782   +15 48 23.34  .12151 1.1073 172.2 26.9
2022 11 27 14  03 47 45.986   +15 48 22.68  .12218 1.1080 172.1 26.9
2022 11 27 15  03 47 46.190   +15 48 22.06  .12286 1.1086 172.1 26.9
2022 11 27 16  03 47 46.394   +15 48 21.47  .12354 1.1093 172.1 26.9
2022 11 27 17  03 47 46.598   +15 48 20.92  .12422 1.1099 172.0 26.9